Temp
20 20 21 20 21 21 20 20 20 20 19 17 19 20 18 20 19 19 18 18 18 19
21 21 21 20 21 20 20 19 20 20 21 19 19 19 19 19 19 18 18 18 17 17
22 22 20 20 20 20 21 21 20 20 20 19 19 19 19 18 18 18 17 17 17 17
22 20 22 20 20 21 21 20 21 20 19 18 17 17 17 17 16 17 17 17 17 17
22 21 21 19 21 20 21 20 20 20 19 18 17 15 16 16 15 16 16 17 17 17
22 22 21 21 20 20 20 20 20 19 19 18 17 15 15 15 15 15 16 16 16 16
22 21 21 20 20 20 20 20 19 19 18 17 17 17 16 15 14 13 13 15 16 16
21 21 20 20 20 19 19 19 18 18 17 16 17 16 15 15 15 14 13 14 14 15
21 21 21 20 19 19 18 18 17 17 16 15 15 15 15 15 15 14 14 14 14 13
21 21 20 19 18 18 18 17 17 16 16 16 15 13 13 14 14 14 13 13 13 13
20 19 18 18 18 17 17 16 16 16 16 15 14 13 13 13 13 13 12 13 13 13
19 19 18 17 17 16 17 16 17 16 15 15 13 13 13 13 12 12 13 13 12 12
18 18 17 17 16 15 15 16 16 16 15 15 14 13 13 13 12 13 12 12 11 11
18 17 17 16 16 16 16 16 15 15 14 15 14 14 13 13 12 12 12 12 11 12
Height
1560 1563 1565 1568 1568 1567 1566 1563 1565 1565 1549 1548 1561 1563 1561 1560 1559 1559 1561 1558 1557 1555
1563 1564 1568 1569 1570 1569 1567 1560 1562 1566 1563 1563 1566 1562 1558 1557 1556 1559 1559 1556 1554 1552
1562 1564 1567 1568 1565 1566 1568 1567 1564 1564 1564 1562 1560 1557 1555 1554 1556 1557 1554 1553 1551 1549
1563 1562 1560 1559 1563 1565 1565 1564 1563 1560 1559 1558 1557 1556 1556 1555 1555 1554 1553 1551 1549 1547
1561 1560 1559 1560 1560 1560 1561 1559 1557 1555 1555 1555 1554 1553 1554 1554 1554 1553 1551 1549 1547 1546
1558 1559 1559 1559 1559 1560 1559 1557 1554 1552 1551 1551 1551 1552 1553 1552 1551 1550 1549 1548 1547 1546
1555 1558 1559 1559 1560 1559 1556 1554 1553 1552 1551 1551 1552 1552 1552 1551 1551 1551 1550 1550 1549 1547
1552 1554 1555 1557 1557 1556 1556 1555 1555 1555 1555 1555 1555 1555 1555 1555 1555 1554 1553 1552 1551 1549
1550 1551 1553 1554 1555 1556 1556 1557 1558 1558 1558 1559 1558 1559 1559 1559 1558 1557 1555 1554 1553 1552
1549 1551 1553 1555 1556 1557 1558 1559 1560 1561 1561 1561 1561 1562 1561 1561 1561 1559 1558 1557 1556 1555
1549 1552 1554 1556 1558 1559 1560 1561 1562 1562 1563 1563 1563 1563 1563 1563 1562 1561 1560 1560 1559 1557
1550 1553 1555 1557 1559 1560 1560 1562 1563 1563 1563 1564 1564 1564 1565 1565 1565 1564 1563 1562 1561 1560
1551 1554 1556 1559 1560 1560 1562 1563 1564 1565 1565 1566 1566 1567 1567 1566 1566 1566 1565 1565 1565 1564
1552 1555 1557 1558 1560 1562 1564 1565 1566 1567 1567 1567 1568 1568 1570 1569 1568 1569 1568 1568 1567 1567
Wind_Speed
13 13 12 8 8 9 9 9 9 15 17 10 12 10 9 10 9 10 11 9 9 9
12 10 8 8 9 8 7 3 3 5 9 5 8 6 7 7 7 10 9 8 10 11
9 7 5 9 10 7 11 10 10 10 7 9 9 8 7 5 5 7 6 5 4 6
6 8 6 7 14 10 9 8 10 7 3 1 3 4 4 3 3 3 3 4 7 8
9 10 12 16 12 9 9 8 6 4 1 2 2 5 4 2 5 4 4 5 6 7
13 11 11 9 8 7 3 2 4 6 5 4 6 9 8 9 7 3 4 7 8 9
12 9 6 7 4 1 2 5 9 10 11 11 10 10 8 10 13 14 14 14 12 12
9 5 5 7 8 8 10 12 13 13 14 13 12 15 16 14 12 13 10 12 14 14
7 6 7 10 11 12 13 13 12 13 13 12 14 14 13 14 14 12 10 12 13 12
10 10 13 14 14 13 12 12 12 13 12 13 14 16 14 15 16 14 12 12 12 13
14 16 17 15 14 13 12 11 10 10 10 10 13 10 9 12 14 16 15 14 14 13
18 18 16 15 13 11 8 8 8 9 9 9 10 7 8 10 11 13 18 18 21 21
19 17 16 14 13 9 7 6 8 9 8 8 10 10 8 6 6 11 18 20 22 24
18 16 15 14 10 7 6 8 11 12 13 10 8 8 7 8 6 14 20 19 19 19
Wind_Direction
218 221 231 238 238 243 272 278 303 237 352 12 294 294 280 292 289 288 280 281 289 311
220 231 232 259 264 258 272 273 261 284 311 322 280 270 278 278 285 284 276 286 300 306
221 220 266 279 263 259 276 283 279 280 278 267 273 272 268 265 281 277 273 272 296 316
205 187 339 244 262 252 265 285 288 291 301 347 90 88 105 124 75 39 19 353 339 333
206 201 209 219 241 266 284 297 296 315 336 48 66 75 81 87 63 36 3 341 350 351
205 213 223 240 252 258 288 325 8 38 65 95 90 81 74 68 65 32 354 24 28 35
212 213 241 203 188 137 82 63 68 73 78 79 68 73 75 85 87 70 58 54 52 53
217 237 185 134 119 108 97 92 89 91 93 91 81 72 77 83 75 74 66 48 42 40
211 180 134 117 117 109 105 103 101 98 97 89 78 71 68 62 62 64 64 59 59 57
161 142 126 123 118 110 106 104 102 100 96 90 87 84 79 74 46 39 50 52 51 51
148 139 133 129 126 119 119 117 110 106 104 102 98 89 74 66 38 34 53 47 44 41
146 143 138 135 132 129 133 111 108 108 108 112 110 82 86 64 47 44 46 60 59 58
151 149 144 139 138 142 109 90 98 99 99 111 140 118 123 104 87 48 55 69 69 62
154 152 149 151 154 141 124 118 105 97 91 96 119 152 151 129 106 77 81 73 68 60